EW3218 Weather Reports


time (UTC)temp
C
wind
direction
speed
KPH
gust
KPH
rain 1hr
cm
rain 24hr
cm
rain mn
cm
humidity
%
barometer
mb
20260506024513 17 138 0.0 0.0 0.00 1.07 0.53 45 1009.4
20260506023011 17 300 0.0 0.0 0.00 1.07 0.53 43 1009.2
20260506021511 17 117 0.0 1.6 0.00 1.07 0.53 41 1008.9
20260506020015 18 179 0.0 1.6 0.00 1.22 0.53 38 1008.6
20260506014510 18 139 0.0 1.6 0.00 1.22 0.53 36 1008.5
20260506013010 19 85 0.0 1.6 0.00 1.22 0.53 33 1008.3
20260506011515 20 92 0.0 4.8 0.00 1.22 0.53 34 1008.2
20260506010022 20 41 0.0 1.6 0.00 1.22 0.53 35 1008.1
20260506004507 21 66 0.0 3.2 0.00 1.22 0.53 34 1007.9
20260506003006 21 161 0.0 3.2 0.00 1.22 0.53 33 1007.7
20260506001506 22 188 0.0 4.8 0.00 1.22 0.53 32 1007.6
20260506000009 23 53 0.0 3.2 0.00 1.27 0.53 33 1007.4
20260505234504 23 66 0.0 4.8 0.00 1.27 0.53 31 1007.3
20260505233008 23 194 0.0 4.8 0.00 1.27 0.53 31 1007.3
20260505231507 24 139 0.0 6.4 0.00 1.27 0.53 31 1007.2
20260505230003 24 93 0.0 4.8 0.00 1.27 0.53 30 1007.4
20260505224600 24 165 0.0 6.4 0.00 1.27 0.53 32 1007.5
20260505223100 24 204 0.0 12.9 0.00 1.27 0.53 32 1007.6
20260505223004 24 277 0.0 12.9 0.00 1.27 0.53 32 1007.7
20260505221601 23 59 0.0 9.7 0.00 1.27 0.53 34 1007.7
20260505220059 23 28 1.6 9.7 0.00 1.27 0.53 34 1007.9
20260505214624 24 210 0.0 3.2 0.00 1.27 0.53 32 1008.0
20260505213102 25 55 0.0 4.8 0.00 1.27 0.53 35 1008.0
20260505211554 23 58 0.0 3.2 0.00 1.27 0.53 42 1008.0
20260505210053 22 110 0.0 1.6 0.00 1.27 0.53 44 1008.2
20260505204552 22 141 0.0 3.2 0.00 1.27 0.53 47 1008.3
20260505203051 23 215 0.0 3.2 0.00 1.27 0.53 47 1008.4
20260505201556 23 153 0.0 4.8 0.00 1.27 0.53 42 1008.4
20260505200049 23 198 0.0 6.4 0.00 1.27 0.53 46 1008.6
20260505194547 23 153 0.0 3.2 0.00 1.27 0.53 45 1008.5
20260505193045 22 153 0.0 1.6 0.00 1.27 0.53 51 1008.7
20260505191548 21 96 0.0 1.6 0.00 1.27 0.53 54 1008.9
20260505190040 21 146 3.2 11.3 0.00 1.27 0.53 52 1009.2
20260505184543 21 136 0.0 9.7 0.00 1.27 0.53 56 1009.4
20260505183055 21 136 0.0 1.6 0.00 1.27 0.53 55 1009.7
20260505181535 20 185 0.0 6.4 0.00 1.27 0.53 57 1009.8
20260505180032 19 351 0.0 3.2 0.00 1.27 0.53 61 1009.8
20260505174531 18 200 0.0 4.8 0.00 1.27 0.53 61 1009.9
20260505173040 19 181 0.0 1.6 0.00 1.27 0.53 61 1010.0
20260505171541 19 168 1.6 9.7 0.00 1.27 0.53 61 1009.8
20260505170028 18 339 0.0 4.8 0.00 1.27 0.53 67 1009.9
20260505164523 18 132 0.0 4.8 0.00 1.27 0.53 71 1009.9
20260505163021 17 172 0.0 1.6 0.00 1.27 0.53 72 1009.7
20260505161518 16 345 0.0 1.6 0.00 1.27 0.53 76 1009.8
20260505153012 16 201 0.0 3.2 0.00 1.27 0.53 86 1009.5
20260505151508 15 136 0.0 1.6 0.00 1.27 0.53 86 1009.5
20260505124555 13 189 0.0 0.0 0.00 1.27 0.53 92 1008.2
20260505123054 13 189 0.0 0.0 0.00 1.27 0.53 92 1007.9
20260505121553 13 189 0.0 0.0 0.00 1.27 0.53 92 1008.0
20260505120109 13 189 0.0 0.0 0.03 1.27 0.53 92 1007.8
20260505114552 13 189 0.0 0.0 0.05 1.27 0.53 92 1007.3
20260505113051 13 189 0.0 0.0 0.08 1.27 0.53 91 1007.6
20260505111551 13 189 0.0 0.0 0.13 1.27 0.53 91 1007.6
20260505101546 13 173 0.0 4.8 0.08 1.14 0.41 91 1008.5
20260505100044 13 179 0.0 0.0 0.08 1.12 0.38 91 1008.2
20260505094543 13 151 0.0 1.6 0.10 1.12 0.38 91 1008.1
20260505093042 13 147 0.0 0.0 0.10 1.09 0.36 91 1008.4
20260505091539 13 147 0.0 0.0 0.13 1.07 0.33 91 1008.8
20260505090044 13 148 0.0 0.0 0.13 1.04 0.30 90 1008.7
20260505084534 13 148 0.0 3.2 0.15 1.02 0.28 89 1009.2
20260505083030 13 80 0.0 8.0 0.20 0.99 0.25 88 1009.9
20260505081535 13 176 1.6 9.7 0.18 0.94 0.20 88 1010.1
20260505080030 13 135 1.6 8.0 0.18 0.91 0.18 89 1010.8
20260505074524 13 182 0.0 4.8 0.18 0.86 0.13 90 1010.7
20260505073042 13 233 0.0 0.0 0.15 0.79 0.05 90 1011.1
20260505071522 13 242 0.0 0.0 0.18 0.76 0.03 90 1011.0
20260505070022 13 244 0.0 0.0 0.15 0.71 0.71 90 1010.8
20260505064534 13 244 0.0 0.0 0.15 0.69 0.69 90 1010.8
20260505063019 13 244 0.0 0.0 0.13 0.64 0.64 90 1010.9
20260505061530 13 244 0.0 0.0 0.08 0.58 0.58 89 1011.0
20260505060017 13 205 0.0 0.0 0.08 0.56 0.56 89 1010.8
20260505054518 13 115 0.0 0.0 0.08 0.53 0.53 90 1010.6
20260505053015 13 115 0.0 0.0 0.08 0.51 0.51 89 1010.5
20260505051515 13 115 0.0 0.0 0.13 0.51 0.51 87 1010.4
20260505041513 13 115 0.0 0.0 0.10 0.38 0.38 85 1010.7
20260505040009 13 130 0.0 0.0 0.05 0.33 0.33 83 1010.6
20260505034509 13 130 0.0 0.0 0.05 0.30 0.30 82 1010.2
20260505033007 14 149 0.0 0.0 0.03 0.28 0.28 82 1009.3
20260505031521 14 149 0.0 0.0 0.05 0.28 0.28 76 1009.0
20260505030007 14 179 0.0 6.4 0.08 0.28 0.28 75 1009.6